Theta_e
316 315 317 320 320 320 321 321 321 320 321 321 321 321 321 320 320 318 318 316 314 313 312 310 310 316 318 310 307 308 307 308 307 310 313 312 312 312 310 310 312 312 313 313 310 311 312 311 312 312 316 317 315 316 314 315 321 331 337 330 322 321 323 320 318 316 317 319 313 310 312 316 316 311 309 308 311 315 313 316 315 316 321 319 319 319 321 329
316 316 317 319 320 320 320 320 320 320 320 320 320 320 320 320 319 318 317 315 313 312 311 311 314 320 321 311 306 308 308 308 310 311 312 309 310 311 309 310 312 313 313 312 310 311 312 312 311 313 319 319 314 316 316 313 320 333 331 327 329 328 321 318 317 315 314 316 314 311 311 313 315 312 310 311 315 315 314 316 314 317 320 320 320 319 322 328
317 317 317 317 319 319 319 319 319 319 320 320 320 320 319 319 318 317 316 313 311 311 310 313 317 320 319 312 306 310 312 310 311 313 310 307 309 309 309 312 312 313 313 312 310 310 312 313 311 315 320 319 315 317 319 316 318 326 327 328 334 330 319 314 316 316 313 314 316 312 309 311 312 311 310 313 316 314 317 317 314 317 319 325 323 318 324 328
316 316 315 316 318 319 319 319 319 319 318 319 319 319 319 318 318 317 315 312 310 311 311 314 320 322 319 311 307 314 315 310 310 311 309 309 309 308 310 312 313 315 314 311 310 310 311 312 311 316 320 318 317 317 317 317 315 319 324 327 326 322 318 315 315 316 313 312 316 313 310 312 310 310 311 313 316 315 318 318 315 318 318 327 325 319 326 328
314 314 315 316 318 318 319 319 318 318 318 318 319 318 318 317 317 316 315 312 310 314 317 316 316 318 315 308 308 314 314 310 310 311 311 310 308 309 309 311 315 315 312 311 311 310 311 311 312 318 320 317 316 317 315 313 314 316 317 319 319 316 315 314 312 313 311 311 314 313 312 312 310 310 313 314 316 316 317 316 316 317 316 330 328 321 326 328
314 314 316 317 318 318 319 319 318 318 318 318 318 317 317 317 316 316 315 312 310 314 318 315 311 310 309 308 309 312 312 312 311 313 314 313 310 311 311 313 316 314 312 313 311 310 312 312 313 317 319 317 316 316 315 310 312 318 315 313 315 314 313 312 311 312 311 312 314 314 312 311 311 312 312 314 315 316 314 310 311 309 311 322 324 322 326 328
314 316 318 317 316 317 317 318 318 318 318 318 318 317 317 316 315 316 315 313 310 311 312 311 310 309 309 309 309 311 312 313 312 314 316 314 314 314 314 314 314 313 313 312 311 312 314 313 314 317 318 317 315 313 314 312 313 321 318 313 313 311 312 311 310 311 310 313 314 310 310 311 314 313 309 311 315 315 308 303 304 308 312 319 323 323 325 326
315 317 318 316 315 316 316 317 317 318 318 317 317 316 316 315 315 316 315 313 311 310 309 309 309 308 309 309 312 315 314 313 313 314 315 315 315 313 314 314 313 313 313 312 312 314 314 313 314 314 316 315 314 314 312 312 314 319 317 313 312 310 311 310 309 310 310 312 310 309 311 313 313 310 309 314 316 312 307 307 311 314 318 321 325 325 322 325
316 318 317 315 314 315 315 316 317 318 317 317 316 315 314 314 314 315 314 313 311 310 309 309 309 308 309 310 312 314 313 314 313 314 315 314 313 312 313 313 313 313 313 312 311 312 312 314 314 313 313 312 312 315 314 314 315 317 316 314 313 312 311 310 311 312 311 311 309 311 313 313 310 308 312 317 315 310 310 322 327 325 331 329 325 324 321 323
317 317 316 314 313 314 316 316 317 317 316 316 315 314 314 314 314 314 312 311 310 309 309 309 308 308 310 310 310 308 310 315 314 313 314 313 312 312 313 313 314 313 312 311 310 310 312 313 313 311 313 313 312 313 312 312 312 314 316 315 313 313 312 312 313 312 312 312 311 313 314 312 309 310 315 315 310 308 316 331 329 332 348 338 325 323 321 322
317 316 315 314 313 315 316 316 315 315 316 315 314 314 314 313 313 312 311 310 309 309 308 308 308 309 311 311 309 307 311 316 315 314 313 312 313 312 313 313 313 313 312 311 310 310 312 311 308 309 312 312 313 312 311 310 311 313 315 315 312 312 312 313 314 313 313 312 311 314 313 312 310 312 318 313 307 309 318 332 330 334 346 336 326 323 321 321
317 316 315 314 314 315 316 315 314 315 315 314 314 314 313 313 313 311 310 309 308 308 307 308 308 310 311 311 309 308 312 316 316 315 312 312 313 312 314 314 313 314 313 312 312 311 311 310 309 312 312 311 313 313 311 311 312 313 314 315 313 313 313 312 313 313 314 313 312 314 312 313 314 315 318 311 308 312 315 325 331 333 334 329 324 321 321 320
317 315 314 313 314 316 315 314 313 314 314 313 313 313 312 313 312 311 309 308 307 307 308 308 309 311 311 311 310 309 311 315 316 314 312 311 313 314 314 315 313 314 313 313 313 312 311 311 312 314 313 314 315 310 311 313 314 313 313 317 314 312 313 311 312 314 313 313 312 313 311 317 319 316 313 308 310 313 315 320 322 323 324 321 320 321 321 318
316 315 314 313 314 316 315 313 313 314 313 312 313 313 312 312 312 311 308 308 307 307 308 308 310 311 309 311 310 310 311 312 314 315 312 312 313 314 314 315 314 314 314 314 313 313 312 310 311 312 311 314 313 308 315 318 317 314 311 317 318 313 314 312 313 315 312 311 311 310 311 317 319 315 309 308 312 313 314 320 318 317 317 316 317 318 319 315
316 315 314 314 314 315 314 312 313 313 313 312 313 313 312 312 312 311 308 308 307 307 309 310 312 311 309 311 310 311 312 312 315 314 312 312 313 313 313 313 313 314 314 314 314 312 311 311 314 315 312 311 311 312 320 321 323 321 312 316 317 312 315 316 314 317 315 311 311 310 313 316 316 314 309 308 314 314 315 321 319 320 318 316 314 313 315 312
316 315 314 314 314 314 314 312 312 312 312 312 312 312 312 312 312 311 309 308 308 309 310 312 313 309 308 310 310 312 314 314 314 313 312 313 313 313 313 312 312 313 313 312 313 311 311 314 314 313 312 311 313 317 319 319 324 324 317 321 319 313 315 315 313 314 315 314 313 311 314 318 317 314 310 309 314 314 317 321 322 324 322 319 315 311 311 310
316 316 315 314 313 314 313 312 312 312 312 312 312 312 310 311 310 310 310 309 311 311 311 314 312 307 307 308 311 314 314 314 313 313 313 313 313 313 312 312 311 311 312 311 312 312 312 314 312 311 315 315 315 317 316 315 318 319 321 325 320 315 315 315 314 312 312 314 314 312 313 317 317 315 314 311 311 312 316 321 321 321 319 317 315 312 312 311
316 316 315 313 313 313 313 312 311 311 312 311 310 311 310 310 310 311 313 312 312 310 311 313 309 308 309 308 311 313 313 313 313 313 314 313 313 313 313 312 309 310 312 312 313 313 314 315 315 317 319 314 314 316 315 315 315 315 318 320 316 314 313 316 318 313 311 314 315 315 314 315 316 315 315 312 310 313 316 317 316 315 315 313 311 312 313 312
316 316 315 314 313 313 312 312 311 312 311 310 310 311 310 310 311 313 313 311 310 308 311 312 308 310 311 309 312 313 312 313 313 313 313 313 312 312 313 311 312 314 315 315 314 314 319 319 316 318 318 315 315 315 315 319 319 317 318 321 322 319 315 318 318 311 311 314 315 317 316 316 316 316 316 313 311 313 314 314 313 312 313 312 311 311 311 312
316 315 314 314 313 313 312 310 311 312 310 310 312 310 310 311 313 314 312 312 311 308 311 312 309 312 312 312 314 312 313 313 313 313 313 312 312 312 312 311 316 318 316 320 317 313 319 321 317 318 317 315 316 314 316 318 318 316 318 323 323 321 318 316 315 312 312 314 316 321 321 318 316 315 315 312 311 312 314 315 316 315 314 313 313 313 312 312
316 315 314 314 313 312 311 311 312 311 310 311 311 309 311 312 312 314 314 313 309 304 309 310 308 312 312 312 313 311 312 313 312 314 313 312 312 313 313 313 316 317 316 321 318 312 316 319 318 319 316 314 315 316 316 317 316 317 318 319 318 318 318 314 312 315 313 313 318 322 321 318 317 316 314 313 313 316 317 318 318 319 317 314 313 314 313 312
315 315 315 313 313 312 311 312 312 311 311 312 309 308 313 311 309 311 311 311 307 303 308 309 307 313 312 311 312 311 314 316 314 314 313 312 312 313 315 316 317 318 316 317 317 315 317 319 318 316 314 312 314 317 318 319 321 322 319 317 317 318 317 312 312 315 313 313 320 323 321 319 318 317 315 315 316 316 316 317 318 318 317 314 313 313 313 312
315 315 314 313 313 312 312 312 312 310 310 312 309 308 312 309 308 309 309 311 308 304 310 311 309 316 315 312 312 311 314 316 315 315 313 312 313 313 315 316 317 318 316 315 317 318 320 321 315 311 311 312 314 316 318 319 320 322 319 318 318 316 316 314 313 314 312 311 318 321 318 318 317 316 316 314 311 312 313 315 314 313 314 313 312 312 312 313
316 315 314 314 312 312 312 312 312 310 310 311 310 308 310 309 308 308 308 311 308 306 310 309 311 319 318 313 312 313 314 314 314 314 312 313 314 312 314 316 317 317 315 315 317 318 319 315 308 308 311 314 315 314 317 318 316 317 320 326 325 318 318 317 313 314 313 310 313 315 314 321 325 322 321 316 310 311 311 311 313 312 311 310 311 313 311 311
315 315 314 313 312 313 312 312 311 310 310 310 310 309 311 311 307 306 308 309 307 307 306 306 312 318 316 312 312 313 313 313 314 313 311 313 314 312 312 313 315 316 315 316 316 317 316 309 306 310 312 315 316 314 318 320 317 315 319 329 329 322 322 319 315 316 317 314 311 310 312 326 334 329 325 320 317 318 312 310 316 316 312 311 314 318 317 314
316 315 314 313 312 312 311 311 310 309 310 310 310 311 311 311 307 307 311 311 309 309 306 307 310 312 312 313 313 313 313 313 311 311 311 311 312 311 312 312 312 315 315 315 315 316 313 308 309 314 314 317 316 315 317 319 319 316 316 322 324 324 326 324 319 318 320 314 308 309 314 321 326 326 326 321 319 322 315 314 319 315 314 317 317 320 324 322
316 315 314 313 312 312 311 310 309 309 311 310 310 311 311 311 308 307 311 311 310 311 308 307 307 309 312 312 312 312 314 315 311 311 312 311 310 310 313 313 312 313 314 314 315 314 311 310 312 314 316 317 316 315 316 317 320 317 314 318 322 324 327 326 323 323 322 313 312 318 318 315 318 318 320 317 317 322 320 320 322 315 313 317 314 315 319 317
316 314 314 313 312 312 310 309 308 308 310 310 308 310 311 311 307 307 312 310 308 309 308 307 307 310 312 310 312 313 313 315 314 312 310 309 309 311 315 317 315 316 313 313 315 313 313 316 315 314 316 316 316 318 316 316 321 319 311 314 319 321 326 327 326 327 319 310 316 324 314 311 320 322 320 316 313 320 322 320 321 317 314 313 311 312 314 314
315 315 314 313 312 311 310 310 309 308 309 308 308 311 311 309 306 307 311 308 307 308 307 308 308 312 313 310 312 314 313 315 316 313 309 308 309 310 314 315 315 318 312 314 319 315 313 315 313 313 314 315 317 316 316 320 322 315 308 313 316 318 323 325 325 326 319 314 323 324 312 311 319 326 324 315 312 319 320 317 319 319 317 314 315 317 318 320
315 315 314 313 312 310 309 309 309 309 309 309 309 310 310 310 308 307 307 307 309 308 306 307 309 314 315 311 312 314 315 316 315 313 313 313 311 310 311 310 314 320 318 320 323 316 312 311 311 313 314 315 314 312 314 318 316 312 313 317 317 321 326 325 326 323 316 321 326 318 313 312 312 323 326 315 315 319 317 317 319 321 321 317 317 321 324 325
315 314 313 313 312 310 310 310 309 309 309 309 309 310 309 312 312 308 306 309 312 309 306 308 310 314 315 312 313 314 316 317 314 314 315 313 312 313 312 310 315 321 320 321 320 315 314 313 313 314 313 313 314 313 310 310 311 316 323 321 317 322 325 326 329 322 316 325 323 313 312 312 310 320 322 316 317 317 314 316 319 321 321 317 318 322 324 326
315 314 313 313 312 311 312 312 310 309 309 309 310 309 308 311 311 309 307 309 311 310 309 310 309 313 315 313 314 315 317 318 315 315 317 315 313 313 314 315 320 319 316 318 318 317 318 317 314 313 311 313 317 318 314 314 317 319 320 320 319 321 319 322 328 321 319 323 314 309 312 311 311 316 315 315 317 315 313 314 317 319 318 318 321 322 324 327
315 314 313 312 313 312 312 313 310 309 310 310 310 310 312 311 309 309 309 308 309 309 311 312 311 313 315 313 315 315 316 317 315 315 316 316 314 312 314 317 320 320 318 319 320 317 318 319 315 315 315 312 315 318 317 318 319 316 315 319 322 321 315 316 320 314 315 318 311 309 312 312 314 313 313 316 311 312 314 312 314 315 315 317 319 320 325 330
315 314 312 311 312 313 313 313 311 309 310 310 308 309 313 312 309 309 309 308 310 310 310 313 313 314 315 314 315 315 315 314 313 315 315 315 315 313 314 313 315 323 324 319 319 318 318 319 317 316 316 313 314 317 319 319 317 315 317 317 319 324 323 322 321 320 321 318 312 309 312 319 319 310 313 316 311 311 313 312 312 313 313 314 315 319 327 332
314 312 311 310 311 312 312 312 311 310 310 310 307 308 311 310 310 310 308 309 313 312 311 312 314 314 315 315 314 313 316 316 314 315 315 315 314 314 314 311 313 322 323 316 316 317 316 316 315 313 312 313 316 315 317 318 316 316 315 314 316 322 324 320 315 318 319 315 313 312 315 322 319 310 311 311 311 313 312 310 314 320 318 315 320 329 334 336
313 311 311 310 310 311 311 311 310 310 311 309 307 309 310 309 311 312 309 311 314 312 311 312 314 316 314 314 314 313 314 317 316 315 315 314 314 314 314 312 314 317 316 316 318 318 315 313 314 314 312 313 315 313 314 317 316 315 313 315 317 316 320 317 307 307 311 312 314 314 316 319 314 311 315 313 312 314 312 311 316 323 323 319 326 335 335 336
312 310 311 310 310 311 311 310 309 310 311 310 308 310 309 308 312 312 310 312 312 311 312 312 313 315 314 314 316 314 314 317 315 315 315 314 315 315 314 313 314 313 314 317 319 319 319 315 314 316 316 312 310 312 315 314 313 316 319 318 313 310 316 318 312 314 315 314 317 316 314 317 314 313 319 317 313 313 314 314 314 318 321 322 328 334 333 334
311 310 311 310 310 311 309 308 309 311 312 310 309 311 309 308 311 313 311 310 310 311 313 312 312 313 314 314 315 313 314 316 315 315 315 314 316 316 314 314 313 312 313 315 313 316 321 318 312 313 317 314 312 315 316 312 310 316 319 315 313 316 318 314 312 319 317 313 321 322 313 311 312 316 322 316 313 316 316 315 315 316 319 324 327 329 329 329
310 311 311 310 310 310 309 309 311 312 312 310 309 310 309 308 311 315 312 309 309 311 311 312 313 313 312 313 315 313 313 314 315 315 315 314 315 314 313 314 314 312 312 314 313 312 319 321 314 312 314 315 315 316 317 316 312 312 311 308 315 323 321 315 313 317 316 312 318 323 317 315 314 315 322 316 315 321 316 315 318 317 319 324 324 325 326 327
311 313 312 310 310 311 310 310 312 314 313 311 309 310 310 307 310 312 310 310 311 310 311 316 314 312 313 313 313 313 313 314 314 315 314 313 312 312 311 313 314 312 311 313 315 314 315 317 316 314 313 315 319 319 318 318 315 312 311 310 315 317 315 315 313 313 318 318 318 318 319 326 322 313 316 314 313 318 316 314 319 319 319 322 322 324 325 326
312 314 312 309 310 311 311 312 314 315 315 312 308 308 309 308 310 310 309 313 314 309 313 318 314 314 316 314 312 313 313 314 313 314 314 312 311 312 311 312 314 311 310 311 314 317 315 314 317 318 316 318 320 316 313 316 315 313 313 313 315 315 314 316 314 312 314 314 317 316 314 323 326 315 314 315 315 317 313 312 319 321 319 320 321 320 318 319
313 314 312 309 310 311 312 312 313 315 315 313 310 310 311 311 311 310 309 313 316 314 314 315 314 316 316 312 312 314 313 315 314 314 315 313 312 313 310 311 312 310 310 312 313 316 318 319 321 320 319 318 315 309 308 312 315 314 314 314 314 314 315 319 319 315 310 306 310 315 313 318 325 315 311 314 316 314 309 308 315 319 318 320 324 321 317 318
313 313 311 309 310 311 312 313 313 314 315 312 311 311 312 313 312 311 310 312 314 314 314 313 313 313 313 312 313 313 313 313 313 313 315 314 311 313 313 312 312 311 311 313 312 313 316 320 321 318 319 318 314 311 310 311 313 315 316 315 315 315 317 323 325 321 315 310 311 314 313 318 326 317 312 315 314 314 314 312 313 318 320 321 325 324 320 323
311 310 310 309 310 311 313 314 313 314 314 311 310 311 311 312 313 311 311 312 314 314 313 314 312 310 314 316 314 312 312 313 313 312 315 315 311 312 315 314 312 312 311 312 313 312 313 317 319 318 319 319 317 315 315 314 314 318 319 315 315 318 317 316 317 316 316 316 316 318 317 316 320 320 318 319 319 321 324 320 317 320 321 318 320 320 318 321
309 309 310 309 310 311 313 313 312 314 314 311 310 312 312 311 312 312 312 313 317 319 315 312 313 315 318 315 312 312 312 314 316 313 312 315 313 311 313 313 312 311 312 316 316 312 314 317 316 317 317 316 317 318 317 318 316 317 320 316 314 316 314 313 315 315 316 316 315 318 319 312 311 315 315 318 321 321 321 320 318 319 320 318 316 314 313 317
308 310 310 310 310 311 312 312 313 314 313 312 311 313 313 312 311 312 313 313 315 318 317 314 314 316 316 313 311 313 312 313 316 314 312 314 315 312 310 311 312 311 316 321 317 314 320 319 313 313 315 313 313 315 317 321 319 318 320 317 314 313 313 316 320 317 316 315 313 316 317 312 311 315 315 318 324 322 318 318 318 317 318 318 316 312 310 311
306 308 310 311 311 312 312 312 313 313 312 312 312 312 313 314 312 311 311 312 313 316 318 315 313 313 313 312 312 313 312 311 313 315 314 312 314 312 308 309 310 311 316 318 314 316 321 317 313 314 314 312 312 316 318 319 318 318 318 316 314 313 313 316 318 315 315 315 314 314 314 312 312 315 317 320 322 322 320 318 316 316 315 314 315 314 313 310
305 306 307 309 310 311 312 312 312 312 312 312 312 312 312 313 313 312 312 312 312 315 316 315 313 313 313 312 312 313 313 312 312 314 314 313 315 313 309 309 309 310 314 312 311 317 318 314 314 315 313 313 315 319 320 318 317 318 318 316 314 313 313 315 315 314 314 314 313 313 313 313 311 312 317 320 320 322 321 317 314 314 315 314 315 316 316 314
303 304 304 306 308 308 311 312 311 311 312 311 312 312 312 312 312 312 313 314 313 315 316 316 315 315 313 312 313 314 313 312 313 314 314 313 315 316 314 312 311 311 312 310 311 314 314 316 316 312 311 313 315 318 320 317 317 318 317 315 314 312 313 313 313 314 313 313 313 313 313 313 311 311 314 317 317 316 315 315 314 314 316 317 317 318 318 316
302 303 303 304 306 306 309 312 311 310 310 311 312 311 311 312 312 312 313 315 315 315 315 316 317 316 313 312 314 314 314 313 313 315 314 314 315 316 316 317 316 313 311 310 310 309 311 318 317 311 312 313 312 316 318 317 317 318 316 314 313 312 313 313 314 314 313 313 313 312 314 313 311 311 312 312 312 311 311 315 316 315 315 316 318 318 319 319
301 302 302 304 306 306 308 311 311 310 309 310 311 310 310 311 311 312 312 312 314 317 317 317 317 315 312 313 315 315 313 313 314 315 314 314 315 315 314 317 317 315 312 312 312 310 311 316 316 312 313 314 313 314 315 314 313 314 315 314 313 313 313 312 313 313 313 314 313 312 314 312 310 311 312 312 313 314 314 316 316 315 313 314 316 318 319 321
300 301 301 303 306 306 307 310 311 310 310 310 310 310 310 310 311 311 312 312 314 317 318 318 317 316 315 314 314 315 316 316 317 316 314 317 317 316 317 318 314 312 313 312 313 314 313 314 317 315 315 315 313 312 313 313 312 312 314 315 313 313 313 312 313 313 313 313 314 313 312 312 313 314 313 313 314 314 314 314 314 314 312 310 312 313 314 317
Wind_Speed
28 31 29 26 26 25 23 22 21 20 19 19 18 17 16 16 18 19 19 19 19 18 18 19 18 18 16 11 11 10 6 6 8 9 13 18 20 17 16 15 12 11 11 7 7 8 4 3 3 4 6 3 3 1 2 2 2 3 3 4 2 3 4 6 8 7 4 3 5 5 6 7 4 2 1 1 3 3 1 2 2 2 4 4 3 2 7 18
29 31 30 26 24 24 23 21 21 19 19 19 18 17 16 16 17 18 19 20 21 20 18 18 16 18 18 12 10 9 5 5 6 12 23 23 18 16 15 14 11 9 10 9 10 11 6 3 3 5 4 2 2 2 2 2 3 4 3 3 3 5 4 5 8 6 3 4 6 5 4 5 5 4 2 2 1 2 2 3 3 3 5 5 4 2 12 20
29 30 30 28 25 24 23 22 21 20 19 19 18 17 16 16 16 16 18 19 21 20 17 17 16 17 17 13 9 8 5 5 6 12 23 22 20 19 14 12 12 10 10 9 10 11 9 8 9 6 4 2 1 2 3 2 1 2 3 3 4 6 3 3 6 6 4 5 8 5 3 2 3 4 3 4 2 1 4 5 1 4 7 5 2 6 15 19
29 29 30 29 27 24 24 23 21 20 20 20 18 18 17 16 15 15 16 19 21 21 18 16 17 17 15 12 10 7 2 4 4 9 13 15 19 21 16 12 11 10 11 9 8 10 9 10 9 4 4 2 3 2 3 1 0 2 3 3 5 3 2 2 5 5 3 5 7 7 5 2 3 3 3 5 4 2 6 7 8 9 9 7 5 10 17 18
29 30 31 31 28 25 23 22 21 21 21 20 19 18 18 17 15 14 15 18 21 22 20 16 16 17 15 13 10 8 2 2 4 6 8 13 15 18 18 13 11 11 11 9 9 10 10 10 6 4 4 2 1 2 1 1 1 2 1 3 4 2 2 2 3 3 3 4 6 9 7 5 3 2 3 8 6 5 5 5 9 9 8 8 9 13 17 17
30 30 31 31 29 26 23 22 22 22 21 20 19 18 20 18 14 13 14 17 20 22 21 17 15 17 16 13 13 13 7 1 3 6 7 11 14 17 17 13 12 11 11 10 11 11 9 6 4 2 2 2 2 3 2 1 2 2 1 1 3 2 2 0 1 3 3 6 7 7 5 5 6 2 2 7 8 5 4 3 5 5 6 10 12 15 16 16
31 31 31 30 28 28 23 22 22 22 21 20 20 19 19 17 15 13 14 17 18 20 21 17 16 17 16 14 14 11 5 4 3 5 4 7 13 15 15 14 12 12 12 13 11 8 6 5 4 4 4 3 3 2 2 1 4 4 2 1 2 1 1 1 0 2 3 6 6 4 4 5 6 4 2 5 9 4 2 2 1 2 7 10 12 15 17 19
32 32 32 30 28 27 24 23 23 22 22 20 19 19 17 15 15 14 14 16 17 18 18 17 17 16 16 15 11 4 4 5 3 3 2 6 10 13 13 12 12 13 13 14 12 8 6 7 5 4 4 1 3 3 2 3 5 3 3 2 2 1 2 1 2 4 3 3 2 5 5 2 4 5 2 7 9 5 3 1 4 5 7 8 10 13 15 18
32 32 32 31 28 26 25 24 23 23 22 20 19 18 15 14 14 13 14 16 17 18 17 17 17 16 16 12 7 2 5 7 5 2 2 7 8 10 11 11 13 14 13 12 12 11 7 6 6 5 4 2 4 4 2 3 1 2 4 3 3 1 3 2 4 4 2 1 1 6 5 2 2 2 3 7 6 4 1 4 4 6 6 7 8 11 14 15
32 33 32 30 29 26 26 25 24 22 20 19 19 17 15 14 13 12 15 16 17 17 17 17 16 17 17 9 5 5 5 4 7 6 4 8 7 8 10 10 12 14 12 9 9 11 6 6 7 5 5 2 3 3 1 3 3 4 7 6 5 2 2 2 4 3 1 1 1 5 5 1 0 0 4 4 3 2 3 4 2 4 6 7 6 8 12 13
33 33 31 29 29 28 27 25 24 22 19 18 18 17 15 13 11 12 15 16 16 17 17 16 16 18 15 8 6 6 4 2 5 7 7 8 7 8 9 9 11 14 12 8 9 11 5 8 11 6 2 2 4 2 0 3 4 5 8 7 6 4 2 4 5 2 2 2 1 5 5 2 2 0 6 4 3 0 6 5 3 4 5 5 6 6 8 11
33 32 29 29 29 29 28 26 25 22 19 18 18 16 14 12 11 13 15 16 16 16 16 16 17 17 11 5 6 6 4 2 3 7 9 8 7 8 7 8 10 12 11 7 9 11 5 10 13 6 1 4 5 2 2 3 5 4 5 5 5 6 4 4 2 2 2 3 1 3 3 3 2 5 7 3 4 2 5 4 4 5 4 4 5 4 6 10
33 31 29 30 30 29 28 27 25 22 19 19 18 17 15 12 10 12 15 16 16 16 16 16 17 16 8 2 6 9 8 3 3 6 8 8 7 7 7 8 9 9 9 7 9 11 7 11 12 6 2 5 3 3 4 4 3 3 4 4 2 5 3 3 2 3 1 2 3 1 2 5 7 9 6 2 4 3 2 4 4 4 4 4 4 4 6 8
34 32 30 30 30 29 28 27 24 22 20 18 18 18 15 11 11 13 15 16 16 17 16 16 17 13 6 2 5 10 12 7 5 7 9 9 7 7 7 8 9 9 8 6 8 9 8 11 11 7 3 3 3 3 4 5 3 3 3 2 2 2 4 4 3 1 3 0 4 3 3 6 7 8 4 3 3 2 3 5 4 3 4 4 4 5 6 7
34 33 31 30 31 30 28 28 25 21 20 19 19 18 14 11 11 12 15 16 15 16 16 16 16 10 2 3 3 8 10 7 7 9 9 10 9 7 6 7 8 7 6 5 8 10 10 12 9 6 1 2 4 6 4 4 4 3 3 1 2 3 4 6 2 1 3 1 4 5 3 6 7 7 4 3 3 5 4 6 4 4 4 4 4 5 6 7
35 33 31 31 31 29 29 29 25 21 20 19 18 16 13 12 12 13 15 15 15 17 15 13 14 9 2 2 2 5 6 6 9 11 10 11 10 7 8 9 7 7 8 8 11 11 9 8 5 2 3 3 4 6 4 4 4 4 3 3 2 3 3 4 1 2 1 1 2 2 3 3 4 6 5 3 4 5 1 5 6 5 5 5 4 5 6 6
35 34 31 31 31 29 29 29 25 21 19 18 18 15 12 12 13 14 14 15 16 16 13 10 12 6 1 2 3 4 4 5 10 12 11 11 10 10 12 8 6 9 10 10 10 7 5 5 1 0 3 3 3 5 5 2 1 2 2 2 2 3 3 2 1 3 4 2 1 1 2 6 5 6 7 5 0 2 3 6 6 5 6 5 4 4 5 6
36 34 32 31 30 29 27 27 26 22 19 18 17 15 13 13 14 15 16 17 16 12 7 6 8 4 3 3 3 3 4 8 11 12 12 11 11 13 10 6 6 9 9 5 3 3 4 4 2 2 3 3 2 5 5 4 5 6 3 3 1 1 3 3 2 2 3 2 2 1 4 9 9 9 9 6 1 2 6 6 5 7 7 6 5 5 6 7
35 33 32 31 30 28 26 26 25 23 21 18 18 18 17 15 13 12 13 13 9 6 3 4 6 4 4 4 3 4 7 11 12 9 10 11 12 11 7 7 7 7 6 3 1 1 2 3 3 4 3 3 5 6 7 7 7 9 6 5 5 3 3 5 4 4 1 3 3 4 5 7 8 10 10 7 1 3 7 6 6 7 7 7 6 6 7 7
34 33 32 31 30 27 26 25 24 24 23 22 25 20 13 10 8 4 3 2 3 3 3 6 7 3 1 1 3 8 10 9 6 5 9 11 12 10 5 4 5 5 3 4 2 1 3 4 3 5 7 9 8 5 5 5 6 8 6 4 4 4 1 4 3 5 1 3 3 3 4 8 9 10 11 8 3 4 8 8 9 8 7 8 7 7 8 8
34 33 32 30 29 27 26 25 23 24 24 28 27 12 5 7 5 5 4 2 3 2 2 4 6 3 1 2 6 10 7 4 3 3 9 10 10 9 1 2 5 3 1 2 2 1 4 5 6 6 7 7 7 6 7 6 7 6 6 5 2 2 2 2 2 4 3 1 2 3 4 10 10 10 10 7 5 7 9 8 10 10 9 8 7 9 8 6
34 33 32 31 29 27 26 23 22 24 25 26 17 3 3 6 7 12 10 2 3 0 3 3 4 2 0 2 6 6 3 4 3 1 5 7 5 6 1 3 6 4 1 2 3 2 2 4 6 5 5 8 6 5 8 7 7 5 4 5 3 3 2 2 2 4 4 0 3 4 4 9 10 10 10 8 8 8 7 8 8 8 9 9 8 8 7 6
34 33 32 31 29 28 25 22 22 23 25 22 10 2 4 8 14 18 10 4 2 0 2 3 4 3 1 1 6 5 4 4 5 3 4 6 3 3 4 5 5 5 2 4 5 5 4 5 4 5 8 10 6 4 9 8 5 4 4 5 3 3 2 2 3 3 4 2 1 1 3 8 8 7 9 8 7 6 5 7 8 7 10 11 8 6 7 8
35 34 32 31 31 27 23 22 21 20 23 20 12 6 6 12 19 16 5 4 3 1 1 2 3 4 3 3 6 6 3 2 5 5 5 7 4 3 5 5 5 5 4 6 7 7 4 4 1 6 6 9 7 4 7 6 2 1 3 6 4 4 4 3 2 1 3 2 3 2 3 6 5 5 8 6 3 4 4 5 8 8 9 9 7 7 9 10
36 34 32 32 30 26 24 21 17 18 20 15 12 8 7 13 16 9 5 3 1 1 1 1 1 4 4 4 5 6 4 2 2 4 5 7 7 4 3 2 3 5 5 6 7 5 3 2 3 7 5 6 8 4 5 7 4 1 4 6 6 7 6 3 3 4 3 3 3 3 2 5 4 4 8 5 6 6 3 4 8 8 6 5 6 8 8 8
38 35 34 33 30 29 24 14 12 18 15 9 13 11 9 13 13 6 5 4 1 1 1 3 2 5 8 4 3 4 4 2 2 1 4 6 5 4 3 1 2 3 5 5 4 2 1 1 3 7 7 6 7 5 6 6 6 2 4 5 7 8 9 7 6 4 2 1 2 3 3 4 6 5 7 5 7 10 7 6 9 7 5 5 5 6 7 6
38 36 35 33 32 30 18 8 14 18 8 7 17 14 10 12 9 3 5 5 3 2 4 1 1 6 9 3 4 6 3 4 2 3 2 4 2 3 4 4 2 1 3 4 2 1 3 3 3 5 6 6 6 5 6 7 7 3 3 5 9 9 9 8 6 4 2 2 2 3 3 2 5 6 6 5 6 10 9 8 9 5 5 6 5 7 8 7
39 38 37 34 33 27 14 12 20 15 3 9 19 15 11 12 6 3 6 3 2 2 4 2 0 6 5 1 4 4 2 3 5 2 2 4 2 3 4 5 5 4 1 4 4 2 3 5 5 6 5 4 5 4 5 8 6 3 2 5 7 8 8 6 6 4 1 1 3 4 3 1 6 6 5 5 4 7 8 9 9 6 5 5 6 7 8 8
40 39 38 35 33 24 13 14 21 15 7 13 21 18 14 10 4 4 4 2 1 1 2 2 3 3 2 3 3 3 1 2 2 3 1 4 2 4 4 5 7 8 2 2 6 1 1 4 6 6 5 5 3 2 2 4 4 3 5 7 6 7 6 5 5 4 3 2 4 4 2 0 5 6 4 2 2 6 8 8 7 7 6 6 6 6 6 6
41 41 39 37 31 22 14 12 19 18 10 15 23 20 14 7 3 5 2 3 3 1 0 2 2 3 6 7 0 3 2 2 1 1 2 2 4 6 3 3 6 7 4 6 4 0 2 1 1 2 3 4 4 3 2 2 6 8 6 7 7 6 5 4 3 4 3 2 6 4 2 0 3 6 4 3 4 6 5 5 6 6 6 6 5 5 5 4
43 42 42 39 30 23 15 7 14 17 10 17 25 17 9 4 2 5 5 4 3 1 0 1 1 4 11 13 5 0 3 2 1 4 3 1 4 4 3 2 4 5 3 4 3 3 3 3 0 0 2 4 6 5 4 3 5 6 4 6 5 4 4 4 4 3 2 4 6 3 2 1 3 6 4 4 6 6 5 4 5 5 6 7 5 5 4 4
43 43 43 39 31 26 16 8 14 16 13 22 22 9 5 4 1 5 4 2 3 3 4 5 4 6 11 10 5 3 3 2 1 4 5 3 3 4 4 4 4 3 1 3 1 2 2 1 1 1 0 3 5 5 4 5 4 5 5 7 5 2 3 2 3 1 3 5 3 2 1 2 5 7 8 10 10 7 7 7 6 6 6 6 6 5 5 4
44 44 42 37 33 28 19 14 17 17 19 23 15 4 4 4 6 8 4 2 2 2 4 4 2 5 10 8 4 4 3 1 3 3 2 3 4 4 1 2 6 5 2 5 4 2 0 3 1 2 1 2 4 5 3 2 1 4 6 6 5 3 3 2 3 1 3 4 2 2 1 2 5 5 9 14 11 6 6 7 7 7 6 6 6 5 5 5
44 44 38 33 31 28 21 17 17 21 24 18 7 4 6 6 8 7 6 5 2 1 2 4 6 7 8 6 5 6 3 0 4 4 2 4 6 5 4 3 4 5 4 3 3 5 4 3 2 3 2 1 2 4 5 5 3 2 3 5 6 5 5 5 4 3 4 2 2 3 1 3 3 2 6 10 7 4 5 6 5 6 6 6 6 6 5 5
43 39 33 29 26 24 22 18 19 26 23 11 5 7 9 9 7 7 8 6 2 2 2 3 8 9 5 1 1 5 3 1 3 4 3 6 7 8 7 6 5 4 6 5 3 2 3 3 3 2 3 1 2 2 2 6 3 1 1 5 3 4 5 4 3 5 4 0 1 2 3 4 3 6 8 5 6 7 5 4 4 6 5 3 4 5 4 3
39 33 28 26 22 19 21 19 23 29 19 7 7 8 9 10 7 6 7 5 4 6 7 4 4 6 5 1 1 5 1 3 5 4 3 4 4 7 8 6 7 7 6 6 3 1 2 2 3 3 2 2 2 2 1 2 3 2 2 3 4 3 8 6 2 1 3 1 3 1 4 5 4 7 8 3 5 7 3 3 5 5 4 2 4 5 3 3
33 26 20 20 22 19 19 22 27 26 12 5 9 9 9 10 5 5 5 6 6 8 10 5 1 4 6 3 4 7 2 3 4 3 4 4 2 6 8 4 5 10 7 4 3 3 5 2 3 2 2 2 1 2 3 3 3 4 3 5 3 3 5 4 2 2 3 2 4 1 4 5 2 4 7 5 6 8 4 4 4 4 4 3 6 5 4 4
24 19 12 15 23 21 20 25 26 18 6 4 10 10 9 8 2 5 6 7 8 8 7 6 3 4 6 6 5 7 5 4 5 4 5 5 4 6 10 5 4 9 7 3 2 2 5 3 2 1 2 2 3 3 3 3 3 4 4 3 4 3 2 2 2 2 1 2 4 3 3 4 4 5 4 3 7 8 6 5 4 5 5 6 6 6 5 5
18 10 5 15 26 22 24 28 20 9 4 6 11 10 7 6 2 4 9 9 7 7 6 5 2 2 4 6 6 6 6 6 7 5 4 5 5 5 10 6 3 7 7 5 4 3 4 4 1 1 1 1 3 1 4 1 4 3 1 2 2 2 4 2 2 4 3 3 3 4 4 3 6 6 5 7 9 8 6 6 6 7 7 7 6 6 6 5
12 4 3 18 27 24 27 25 11 5 6 9 12 7 3 5 1 2 7 8 5 3 5 5 4 4 4 4 4 5 5 5 8 6 4 5 4 4 7 7 6 8 5 4 4 3 3 3 3 1 3 1 2 3 6 7 4 2 2 3 2 1 2 1 0 2 3 4 3 2 3 6 6 5 8 11 9 8 6 6 6 7 7 7 7 6 6 5
6 3 4 21 31 29 26 15 5 6 6 10 11 3 1 3 4 3 4 3 4 2 4 6 6 5 5 4 4 4 4 4 6 5 3 5 6 5 6 7 9 10 6 4 4 4 2 3 5 3 0 3 4 3 3 5 5 5 5 6 6 4 4 3 2 1 2 3 4 3 3 8 6 4 7 8 7 7 6 6 6 7 7 7 7 6 5 5
5 2 8 26 35 30 20 7 4 6 5 8 7 1 1 2 5 7 4 1 4 2 3 5 4 4 5 5 5 6 7 5 5 6 4 7 8 6 4 5 10 12 9 5 3 3 3 4 5 2 3 4 4 3 1 2 1 3 4 4 6 4 5 6 5 4 2 1 2 3 1 8 6 4 6 6 5 5 4 4 6 6 7 7 7 6 5 5
3 2 12 32 39 26 12 6 5 5 6 4 0 2 1 1 3 6 4 3 3 3 3 3 3 3 3 4 5 8 9 6 6 8 5 5 6 5 4 8 11 12 9 5 3 3 2 4 4 1 3 3 4 3 2 1 1 2 4 3 5 3 3 5 5 4 4 3 3 3 2 8 5 2 4 5 4 4 5 5 6 6 5 6 7 5 4 5
3 2 7 26 38 24 8 7 9 10 10 4 1 1 1 1 3 5 6 6 3 4 5 3 3 3 3 4 6 8 10 5 5 8 4 2 3 1 5 11 12 11 8 5 7 7 4 4 5 4 2 3 4 3 2 2 2 4 3 3 4 4 6 5 2 4 2 5 6 5 5 7 4 3 1 1 4 5 6 6 5 5 5 4 5 5 4 5
3 2 2 12 23 15 5 6 8 11 11 5 3 4 1 1 1 2 5 5 2 4 6 3 3 4 4 5 5 4 9 6 3 6 3 2 2 2 2 10 11 9 4 1 5 7 5 4 6 7 6 5 5 6 5 3 3 2 2 5 7 8 9 6 3 4 3 5 6 6 7 7 4 5 3 2 3 4 6 5 4 4 5 4 4 5 4 5
2 2 2 6 8 6 4 2 2 6 10 8 6 5 4 2 1 1 2 4 2 2 3 2 3 5 4 7 6 5 10 6 2 4 6 5 3 2 1 7 9 7 2 4 8 7 3 2 6 10 11 11 12 10 5 6 6 6 7 10 11 10 10 7 5 4 6 4 4 7 10 10 7 5 6 6 5 5 5 4 5 6 6 5 5 4 3 2
1 1 3 5 4 5 6 3 3 5 8 10 7 5 6 5 2 0 1 1 3 3 3 2 4 7 7 9 8 6 10 7 2 4 6 5 2 2 1 2 5 4 1 5 8 5 4 4 8 10 13 13 10 7 5 9 10 12 12 11 11 11 10 9 8 9 6 6 5 12 12 14 13 7 7 9 7 6 7 8 8 7 6 5 4 3 2 3
0 1 0 0 1 5 7 9 9 5 6 9 4 3 8 7 5 5 2 1 1 3 3 1 5 10 13 13 9 5 7 6 4 4 4 4 3 1 3 2 2 2 2 3 3 4 5 6 8 8 12 12 4 5 6 8 7 9 11 12 13 13 13 14 15 11 9 8 13 17 15 17 15 9 10 11 9 8 9 8 5 4 5 5 3 5 5 5
1 0 2 2 1 2 4 8 10 5 6 10 5 3 8 9 8 6 2 3 2 3 3 4 7 10 12 13 10 7 8 8 7 7 5 4 4 3 3 1 1 0 3 4 1 2 4 4 5 7 9 12 4 5 6 7 6 5 9 13 14 15 17 18 17 14 12 13 19 18 14 15 14 10 11 11 8 6 3 1 3 5 6 6 6 7 8 8
2 1 0 2 2 2 0 6 10 7 4 7 8 5 6 10 10 5 1 5 6 4 3 7 9 9 10 11 10 8 11 13 11 10 8 7 4 4 4 4 3 2 2 4 2 2 3 3 1 6 5 9 4 5 5 6 7 5 6 8 11 13 15 16 16 16 13 15 20 16 10 13 10 9 10 7 4 4 1 2 6 8 7 7 8 9 9 8
1 0 1 2 0 1 1 4 8 7 4 6 9 7 6 10 10 5 1 2 5 6 6 8 9 7 5 9 10 10 12 12 10 10 13 12 8 7 5 5 7 8 5 5 4 3 4 2 2 5 4 7 5 8 6 5 5 2 3 7 12 13 14 16 16 15 14 15 16 10 9 13 7 8 8 7 6 6 7 9 8 8 8 9 10 10 10 10
0 0 1 1 1 2 2 2 6 7 6 6 7 5 5 6 6 6 3 2 2 5 6 9 10 7 5 9 12 10 9 8 6 6 8 7 5 6 5 5 9 11 9 7 5 3 6 5 2 5 6 5 2 6 8 7 4 1 5 12 18 18 17 16 14 13 13 13 12 9 13 14 5 8 9 9 10 11 12 11 10 9 10 10 10 11 11 11
Wind_Direction
192 194 195 193 190 189 188 188 186 186 189 192 196 196 197 200 201 203 204 205 204 206 207 210 207 205 216 229 226 224 230 234 246 245 234 238 240 244 256 267 276 250 226 225 197 178 153 136 157 133 135 104 13 320 60 27 55 57 79 100 142 172 200 182 177 195 164 156 185 203 190 156 172 220 192 120 53 51 126 290 299 294 259 239 256 272 161 160
189 192 194 192 190 189 187 188 186 184 185 187 190 189 192 196 198 201 201 202 201 203 206 207 205 204 216 233 225 216 227 263 288 259 246 246 247 245 251 260 263 244 218 209 199 181 154 168 164 113 84 61 346 355 65 4 58 86 105 110 193 197 206 194 171 179 161 132 153 172 186 172 176 167 146 173 288 35 156 259 324 307 261 246 272 224 162 162
187 189 192 193 192 190 188 189 186 182 182 184 186 187 190 192 194 199 199 202 200 200 205 207 205 202 214 229 218 210 237 312 321 263 254 249 243 240 240 247 245 230 217 213 206 195 185 177 157 120 60 64 335 24 79 18 38 137 119 111 229 209 208 225 181 182 188 140 135 150 169 177 191 159 156 181 167 121 199 221 205 243 241 224 231 160 158 164
187 191 193 193 190 188 186 185 183 182 183 182 182 185 189 189 190 194 195 199 200 200 206 207 206 207 215 222 205 203 246 4 301 259 264 250 239 236 230 233 230 220 221 220 206 201 188 158 139 97 71 71 335 18 97 20 189 140 123 165 225 192 144 214 200 194 182 144 138 137 131 166 208 165 159 153 136 249 240 223 202 212 215 193 176 163 163 168
187 191 192 189 187 186 184 180 181 182 181 179 179 184 189 189 186 188 189 193 199 201 208 208 206 209 210 208 190 185 165 48 279 277 266 236 224 226 224 225 220 211 211 205 183 173 164 143 112 62 70 93 354 60 118 312 86 105 119 172 192 155 112 204 208 193 157 111 121 130 145 173 157 135 162 158 169 230 235 225 214 212 197 174 167 167 168 173
187 188 186 184 183 184 183 179 180 180 178 176 177 184 192 192 183 183 185 187 193 196 203 204 198 197 195 190 170 165 170 185 315 334 284 227 202 206 211 214 208 200 198 184 160 149 145 124 108 120 77 75 140 135 163 305 57 126 205 124 180 192 123 189 237 205 153 115 135 153 167 144 127 163 185 178 205 218 208 232 237 225 183 159 153 160 170 180
186 184 182 181 181 183 183 180 180 178 176 174 177 187 194 191 183 182 183 183 186 188 194 193 185 185 180 168 157 160 191 254 316 346 298 210 191 192 196 205 196 190 191 173 154 140 132 118 135 159 95 81 168 151 152 79 50 100 150 150 189 213 88 288 234 165 141 133 167 165 131 127 156 174 99 219 231 223 219 279 311 156 149 149 151 166 180 187
185 182 180 180 181 182 182 180 180 176 174 173 176 187 190 185 181 182 180 181 182 184 188 186 180 178 173 160 147 155 235 244 301 340 232 179 181 182 184 196 187 187 188 178 170 150 138 139 159 160 103 181 170 132 146 99 47 87 147 166 146 34 15 8 86 112 126 127 150 123 115 162 189 153 128 242 244 250 261 63 100 117 135 161 167 178 187 192
183 180 179 180 182 181 179 179 177 174 173 172 177 183 182 179 180 181 181 180 180 184 184 181 178 173 173 163 132 174 222 224 250 287 194 175 180 183 181 188 188 189 185 187 184 160 156 163 183 182 154 197 137 126 171 145 191 155 133 131 118 41 347 53 85 86 116 104 92 122 102 338 203 147 261 252 251 270 295 96 125 131 150 188 184 187 190 193
182 180 179 181 183 180 176 176 175 174 173 174 178 179 176 178 179 180 182 180 180 182 181 177 174 170 172 157 128 203 222 215 232 239 205 181 184 190 188 191 191 191 182 182 184 169 173 179 178 167 142 134 112 120 175 161 175 129 114 102 86 59 331 46 96 61 81 101 55 137 124 335 224 222 261 258 297 287 133 120 158 159 177 201 201 200 196 200
181 180 180 181 181 178 174 175 176 174 173 173 176 176 175 177 177 178 180 179 179 179 178 174 171 171 171 161 169 212 219 195 220 214 196 186 189 198 201 202 195 195 184 171 189 186 185 176 157 126 144 158 114 84 7 148 117 116 125 98 29 16 36 37 85 48 12 107 68 125 125 334 22 246 232 243 336 318 151 154 189 194 215 215 212 214 204 214
182 180 179 179 179 176 174 176 177 174 172 172 173 175 175 173 173 176 176 175 177 176 175 172 172 172 163 174 210 210 187 169 201 199 193 186 189 198 204 206 198 200 194 181 198 195 183 171 144 98 254 152 123 122 141 116 94 111 123 107 2 9 42 14 49 317 358 121 273 114 114 294 232 230 235 259 343 53 140 178 211 215 241 245 230 230 216 222
183 180 177 177 178 176 175 178 176 173 174 174 173 178 178 171 166 170 171 172 174 172 172 171 172 170 157 204 221 203 202 195 189 199 191 183 188 197 199 197 192 199 207 204 195 188 183 177 147 105 114 113 123 183 123 71 69 115 81 99 66 24 7 331 336 309 88 113 313 140 202 270 251 250 247 308 348 44 126 221 233 237 251 259 249 242 235 226
182 180 176 177 179 176 177 179 175 173 176 175 176 183 180 164 161 166 166 170 171 169 169 169 168 166 164 234 211 203 215 221 212 201 188 185 177 177 185 187 192 199 210 215 188 176 176 168 135 101 95 92 129 132 66 28 27 101 82 61 86 141 252 303 329 336 125 146 344 108 202 270 264 265 269 325 346 116 247 260 260 265 258 258 253 248 250 236
182 180 177 178 178 177 179 177 173 172 174 175 179 185 179 161 162 162 162 166 165 164 163 162 164 155 139 266 225 196 206 207 201 197 192 187 172 166 176 177 184 189 190 188 160 151 153 144 112 89 82 19 102 99 51 25 19 47 109 320 358 163 246 311 337 62 139 226 18 100 203 272 266 266 282 343 66 141 229 271 284 282 269 257 250 247 253 254
182 180 177 177 178 178 179 177 172 169 172 178 181 183 175 162 158 155 158 158 154 157 154 157 166 152 113 216 180 170 186 190 187 188 187 184 181 173 154 147 141 143 145 133 130 131 123 108 82 96 115 68 98 105 75 45 10 1 101 173 235 166 234 309 8 348 21 141 18 87 201 270 280 269 281 335 74 107 238 279 285 282 276 264 248 246 248 261
182 181 178 176 178 178 178 178 173 167 171 177 179 178 170 158 152 148 147 142 141 147 147 158 167 154 66 147 151 180 180 171 173 175 177 181 187 171 145 125 107 120 118 113 123 112 60 57 53 202 72 73 125 112 99 74 248 285 57 127 216 179 186 280 243 323 14 104 206 38 213 240 264 279 285 294 20 73 291 274 278 278 275 266 252 254 250 252
181 180 177 176 179 178 177 177 172 167 168 168 166 161 149 141 139 135 132 130 124 119 123 153 148 141 244 194 176 189 152 152 159 162 166 170 174 166 147 120 116 116 102 91 100 58 26 28 62 119 48 52 139 129 149 192 182 181 176 145 178 194 197 260 241 261 17 83 201 226 242 251 269 282 283 283 224 244 270 264 273 274 270 267 258 252 249 249
181 179 177 176 177 178 176 172 167 166 166 158 146 135 125 118 114 120 129 130 123 114 138 174 151 153 213 210 180 130 125 140 146 148 152 154 161 155 124 113 117 105 104 108 80 59 80 54 67 132 138 161 184 178 178 193 168 162 170 145 149 165 223 247 251 273 13 116 227 235 243 265 274 278 282 286 228 235 274 279 272 267 264 262 254 246 246 244
180 179 177 176 176 176 173 168 163 163 163 153 143 133 124 122 108 109 134 140 174 157 148 169 161 143 159 236 137 125 120 125 131 143 148 154 156 135 82 80 84 63 108 148 152 146 104 128 175 181 183 186 185 165 143 149 132 134 127 110 147 157 216 253 269 306 346 145 243 250 269 278 270 269 273 279 285 268 273 276 271 265 260 255 248 249 246 240
180 179 177 175 174 172 168 165 162 162 161 156 152 143 154 162 140 157 174 273 231 162 78 161 144 105 123 151 150 144 124 92 73 119 149 160 158 146 76 32 107 81 259 161 144 88 91 159 208 208 189 169 152 125 107 97 87 103 132 134 171 193 210 259 272 322 350 168 267 4 321 278 268 269 269 271 277 259 250 250 259 259 258 257 245 249 251 252
178 179 178 174 172 169 166 162 160 163 164 163 166 182 207 174 141 149 146 122 223 114 41 137 124 65 22 161 177 169 98 84 95 107 160 154 156 174 177 79 132 158 262 123 117 98 124 210 225 207 158 109 88 93 95 89 89 90 112 136 176 228 221 289 308 341 9 111 274 359 338 281 271 270 265 256 248 246 240 235 246 254 259 261 250 249 259 266
177 178 177 175 172 167 164 160 160 167 169 171 185 229 179 154 142 145 130 89 160 7 48 141 160 157 98 180 199 170 94 123 156 220 193 145 140 185 139 110 136 139 148 164 151 150 184 252 242 173 140 117 91 76 96 89 84 95 110 132 183 237 175 217 256 333 15 71 275 352 314 286 283 283 271 256 247 260 268 257 255 249 248 258 262 263 262 262
176 176 176 175 172 167 163 158 160 172 176 180 197 200 155 146 149 147 105 73 147 238 241 184 167 166 153 164 186 164 115 139 164 181 185 149 135 155 143 136 131 130 175 178 150 155 194 273 195 136 133 130 123 113 124 120 92 104 155 146 168 198 177 190 190 89 13 28 47 36 321 295 300 302 278 279 318 292 289 295 277 255 248 263 278 269 252 251
175 174 175 175 172 166 159 152 157 173 176 184 204 195 148 148 157 150 86 80 152 311 287 222 157 190 183 133 165 174 131 124 189 185 175 153 141 137 140 134 135 165 182 143 130 158 217 274 137 133 120 118 127 148 173 151 136 253 216 178 173 171 155 137 124 93 46 360 8 23 313 286 315 304 265 293 342 303 290 296 273 264 268 267 261 262 256 252
175 173 173 174 171 162 156 151 165 170 166 192 201 183 159 156 159 153 90 63 281 262 171 178 151 178 179 141 153 156 121 168 260 81 135 145 139 120 130 105 47 172 167 131 132 167 190 5 90 132 136 129 135 175 201 154 130 210 231 172 149 137 130 137 139 110 112 217 343 53 171 258 317 303 269 312 328 300 295 272 264 270 284 270 252 264 269 262
176 173 171 173 169 162 157 151 163 162 153 206 196 178 163 159 156 146 79 47 288 210 142 185 354 161 172 177 154 142 160 200 127 62 90 128 127 69 126 170 100 147 166 124 153 222 120 93 80 110 117 128 146 190 205 150 133 210 239 133 130 129 136 145 125 106 169 213 338 24 117 226 297 273 276 328 322 304 306 283 276 279 267 270 270 268 269 264
176 173 171 172 169 168 166 148 155 162 157 177 180 175 162 157 152 95 89 87 255 148 135 213 118 142 152 64 98 115 209 189 126 178 332 91 124 53 103 179 149 136 152 136 182 251 108 151 170 139 122 151 179 225 204 143 126 243 223 128 128 126 128 125 99 93 55 34 301 322 47 192 268 272 301 344 320 296 294 277 284 300 281 277 281 272 271 271
176 173 171 169 167 171 176 159 161 171 169 158 168 172 161 154 146 80 87 164 191 74 127 144 125 136 109 84 70 47 26 31 110 206 334 80 86 53 116 179 135 119 57 100 162 201 95 182 188 148 147 181 181 299 242 146 126 191 154 106 85 80 82 81 89 95 50 42 241 269 16 211 264 283 303 352 283 258 265 271 282 294 293 295 295 287 282 282
176 173 170 167 165 168 164 165 173 171 162 160 166 167 153 142 127 111 153 215 150 78 300 139 169 161 133 137 87 353 76 31 11 117 30 70 41 33 107 145 105 110 44 41 95 200 310 247 180 117 150 169 137 80 7 117 133 143 128 87 68 43 39 51 58 76 67 310 253 256 324 319 270 280 253 207 223 218 228 285 292 293 309 316 307 301 301 304
176 173 170 168 167 165 153 162 183 170 157 160 160 156 138 100 69 139 190 216 125 92 92 152 193 145 152 161 168 130 88 31 305 133 129 125 51 53 116 120 77 78 50 49 45 339 3 41 50 104 120 124 104 74 33 26 104 111 103 99 87 12 14 27 2 42 113 252 262 274 319 161 228 259 246 237 256 232 207 249 270 284 312 318 313 316 318 319
176 173 171 171 171 170 170 181 176 163 155 156 152 142 125 108 165 188 199 187 151 193 181 177 200 168 166 161 141 151 126 72 226 151 143 143 131 148 155 166 150 91 132 179 122 3 38 59 295 8 140 150 117 88 39 345 14 82 112 115 103 19 20 6 311 343 211 243 266 291 274 206 235 251 260 265 263 244 226 227 234 256 287 300 306 318 323 328
177 173 171 172 170 171 183 184 168 160 156 154 144 95 97 142 202 204 199 196 198 200 149 136 131 143 149 143 146 165 123 124 187 151 124 132 147 180 211 172 152 126 179 179 136 123 11 309 299 98 250 208 138 127 136 251 240 133 143 134 132 125 110 218 255 288 251 252 288 289 241 252 271 261 249 251 250 228 219 225 226 239 258 274 289 304 310 312
175 171 166 168 169 172 184 182 169 164 157 151 144 115 130 178 207 193 189 217 245 47 89 112 108 123 145 151 186 179 114 55 180 125 102 132 145 188 217 217 163 108 110 145 154 162 174 254 230 163 222 219 151 170 154 142 135 172 169 129 146 158 154 195 206 194 227 261 304 293 238 199 216 256 238 239 259 266 239 246 250 250 254 262 285 294 287 287
169 165 160 163 167 173 178 174 170 167 157 146 154 157 170 197 205 192 187 196 203 87 58 94 119 134 160 74 292 202 141 149 182 124 138 166 169 188 188 194 195 139 124 156 194 165 163 236 270 279 266 144 151 230 117 104 112 241 116 103 160 182 137 140 173 172 168 101 288 250 241 215 212 281 272 241 270 279 269 282 271 259 271 274 280 280 266 268
162 158 159 163 166 169 168 168 170 168 159 147 165 175 197 203 192 186 176 152 153 138 107 81 93 133 165 78 248 229 138 113 168 155 170 188 190 191 186 190 190 178 164 157 165 163 155 248 318 332 339 71 142 229 61 102 164 161 123 165 211 164 113 116 176 97 91 184 257 210 253 287 323 292 290 297 272 270 277 275 247 255 292 289 248 256 249 245
156 154 158 163 167 165 163 167 168 164 158 165 180 187 206 209 181 141 144 129 141 136 122 137 173 143 163 159 186 206 180 114 168 179 179 188 221 194 189 213 191 186 193 159 161 197 156 129 344 27 76 32 228 150 59 40 113 121 174 203 182 116 94 111 145 22 47 229 273 274 238 283 323 275 312 337 270 258 250 234 241 269 281 233 223 232 229 227
148 148 150 161 166 162 161 165 160 153 145 181 196 207 207 208 174 122 135 130 137 141 140 166 175 141 167 176 179 187 174 158 179 189 174 185 242 199 174 192 198 188 199 156 146 200 133 117 332 28 132 310 345 94 93 23 54 120 187 179 114 136 168 103 139 162 138 228 278 301 275 264 212 227 299 299 232 239 234 200 194 223 225 216 221 229 233 235
138 137 137 161 162 157 157 156 146 139 161 183 201 216 199 186 206 162 151 133 128 145 157 175 164 116 167 173 159 169 181 177 173 181 185 188 238 214 175 178 183 186 191 152 151 184 121 128 228 330 251 291 10 99 178 180 18 33 99 103 73 128 163 159 148 162 175 198 247 305 323 261 225 216 215 219 222 221 201 171 190 218 218 219 221 218 220 217
140 130 134 160 158 152 149 143 130 152 186 197 204 213 178 166 222 230 170 136 118 152 163 175 166 139 157 167 152 168 181 174 170 185 213 187 206 236 200 185 164 171 167 105 128 165 105 128 171 320 331 219 173 218 190 172 149 108 126 161 174 68 113 165 84 114 141 161 186 264 300 264 246 207 200 219 233 227 197 172 204 230 224 224 229 221 216 210
148 117 145 163 158 149 142 135 145 181 192 215 212 209 101 161 135 175 205 118 103 140 143 147 156 149 150 155 167 173 153 150 177 190 221 202 200 224 214 186 159 153 136 101 139 165 140 138 150 142 287 197 224 267 198 180 173 160 171 185 179 150 124 153 247 248 114 134 169 176 259 266 253 201 205 218 226 238 222 178 202 238 237 236 242 233 221 217
151 116 155 164 161 153 143 145 189 187 208 220 212 150 103 151 140 162 196 89 100 110 98 119 138 144 154 161 165 163 150 155 188 191 212 216 207 216 218 165 147 153 152 140 153 160 134 109 112 147 212 213 257 303 149 212 227 164 201 194 169 162 138 153 206 217 121 106 139 116 261 271 258 196 210 228 229 248 249 198 211 243 242 243 253 240 219 226
142 110 151 162 165 160 147 161 175 204 234 223 13 8 59 74 129 153 175 177 149 136 122 133 151 150 169 167 150 160 167 170 192 200 214 221 215 225 194 151 145 155 156 143 150 157 125 109 109 56 309 315 319 339 41 24 16 216 238 193 159 181 145 146 182 168 137 169 149 95 275 270 275 239 216 242 265 276 268 230 217 240 250 245 258 252 208 210
120 74 141 165 170 168 160 173 181 203 214 192 79 282 331 31 140 151 174 189 180 151 144 152 174 159 163 151 138 168 181 175 198 208 212 199 209 224 163 163 160 162 172 179 174 176 185 158 128 103 39 357 347 339 326 307 226 210 226 164 146 132 105 106 123 103 129 205 161 143 239 256 286 314 245 280 308 292 276 252 215 227 250 246 262 261 192 170
123 78 58 166 174 178 183 180 187 198 195 171 180 211 229 22 172 173 177 173 158 152 154 167 169 126 126 136 104 146 184 176 174 198 203 205 232 330 170 182 180 178 194 152 143 164 184 174 150 151 168 183 197 208 219 219 192 195 196 169 171 162 148 148 120 110 209 226 159 165 233 252 306 330 301 282 297 276 270 267 238 232 241 233 247 254 199 154
107 106 121 157 177 207 218 139 144 194 189 176 186 200 177 158 233 299 158 159 176 143 119 124 136 104 117 151 131 157 199 199 104 159 192 198 217 308 230 190 193 197 179 112 136 145 141 183 190 187 192 198 203 206 179 128 142 187 195 181 181 181 167 144 117 165 196 172 159 216 240 251 264 273 262 248 224 223 233 223 223 233 233 220 212 240 257 196
58 93 159 158 170 201 205 186 164 187 189 183 187 188 177 171 164 130 83 178 194 151 78 68 157 152 162 165 153 172 196 195 133 156 188 192 205 308 3 158 201 224 116 140 160 129 103 202 210 201 214 218 205 195 159 142 168 193 186 174 179 179 163 157 184 201 160 120 221 237 231 243 247 218 223 242 226 217 223 211 212 212 216 231 208 188 246 268
83 51 205 150 157 195 203 197 186 168 163 178 190 176 178 176 159 168 174 45 198 178 116 118 194 180 171 165 157 162 175 179 198 199 176 156 157 103 40 48 227 264 52 127 164 111 129 210 211 192 224 237 191 138 165 163 168 183 175 172 177 172 169 185 205 203 152 157 233 236 216 230 240 200 200 229 216 208 216 207 198 171 179 230 223 175 192 220
107 42 306 350 13 229 202 169 163 145 149 176 197 183 180 186 182 188 159 106 180 231 152 160 201 191 174 165 156 155 167 175 203 213 181 142 148 132 96 113 221 264 91 116 158 149 154 218 210 169 220 244 203 137 177 170 151 169 180 178 175 174 182 196 208 208 190 202 233 237 225 236 239 201 202 223 206 202 227 131 145 178 186 197 201 202 206 208
109 144 291 34 27 319 14 137 155 164 164 182 200 195 182 191 191 195 142 140 170 211 182 178 188 180 172 172 167 173 187 187 194 198 166 137 158 173 166 184 173 119 124 144 168 218 193 225 180 131 206 250 204 146 182 171 155 170 176 172 173 178 191 203 213 213 207 220 236 243 253 264 248 191 200 227 177 146 266 234 206 210 200 186 197 211 210 208
60 95 114 110 111 218 191 146 156 172 183 191 200 191 182 200 193 169 172 188 165 173 179 171 162 145 150 180 189 199 199 190 186 184 169 161 176 186 183 184 160 146 166 178 160 168 184 210 55 108 184 245 203 170 170 110 96 114 142 169 180 185 196 206 213 210 203 215 233 244 256 260 243 156 177 215 192 190 223 228 224 225 211 195 204 212 209 211
7 31 107 136 181 183 199 160 156 180 199 196 195 181 169 198 189 157 180 252 155 167 168 154 149 135 142 190 206 210 193 174 159 166 170 157 149 155 155 164 161 158 167 174 168 171 167 167 146 146 185 248 234 156 140 100 87 245 219 193 189 195 204 207 214 220 208 205 213 219 232 239 200 139 175 197 202 215 223 218 219 226 220 209 211 215 213 214